Probability
0 0 0 0 0 1 2 2 2 1 0 0 0 0 0 0 0 0 0 0 0 0 0 0 0 0 1 2 3 3 3 3 3 3 3 3 3 3 3 3 3 3 3
0 0 0 0 0 0 1 1 1 0 0 0 0 0 0 0 0 0 0 0 0 0 0 0 0 0 0 1 2 2 2 2 2 2 2 2 2 3 3 3 3 3 3
0 0 0 0 0 0 1 1 0 1 1 0 0 0 0 0 0 0 0 0 0 0 0 0 0 0 0 0 1 1 1 1 1 0 1 1 1 1 2 3 3 3 2
0 0 0 0 0 0 1 1 1 2 3 1 0 0 0 0 0 0 0 0 0 0 0 0 0 0 0 0 0 0 0 0 0 0 0 0 1 1 1 2 2 1 1
0 0 0 0 0 0 1 2 2 3 3 2 0 0 0 0 0 0 0 0 0 0 0 0 0 0 0 0 0 0 0 0 0 0 0 1 2 1 1 1 1 0 0
0 1 2 1 0 0 0 1 2 2 1 1 0 0 0 0 0 0 0 0 0 0 0 1 1 1 0 0 0 1 2 1 1 0 0 1 1 1 0 0 0 0 0
1 2 3 3 1 0 0 1 1 1 1 0 0 0 0 0 0 0 0 0 0 0 0 2 3 2 1 1 1 2 3 3 2 2 1 1 0 0 1 1 1 1 1
1 1 2 2 1 0 0 0 0 0 0 0 0 0 0 0 0 0 0 0 0 0 0 1 3 3 3 3 2 3 4 4 4 4 3 2 0 0 1 2 2 2 2
2 1 1 1 0 0 0 0 0 1 1 0 0 0 0 0 0 0 0 0 0 0 0 0 1 3 5 5 4 4 5 6 6 6 6 5 3 1 1 1 1 2 3
4 3 1 0 0 0 0 0 0 1 1 0 0 0 0 0 0 0 0 1 1 0 0 0 0 2 5 7 6 6 6 6 6 6 6 7 6 3 1 1 1 1 2
5 3 1 1 1 0 0 1 1 1 1 0 0 0 1 1 1 1 1 2 2 1 0 0 0 1 3 5 5 5 5 4 4 4 5 6 6 4 3 3 2 1 1
4 3 3 3 3 2 2 3 3 2 1 1 1 0 1 2 3 2 2 2 2 1 0 0 1 2 3 4 3 3 3 3 2 3 3 4 4 4 4 4 2 0 0
5 4 4 4 5 5 5 5 5 5 4 3 2 1 2 3 3 3 4 3 2 1 0 0 1 3 4 5 4 1 1 1 1 1 2 2 3 3 4 3 1 0 1
6 6 6 6 6 6 7 7 8 8 7 6 4 4 4 3 3 4 5 5 3 1 0 0 1 2 4 6 5 1 0 0 0 0 1 1 1 2 2 2 1 1 2
10 9 9 8 8 8 8 9 10 12 12 10 8 7 6 4 4 5 6 6 5 3 2 1 1 1 3 5 3 1 0 1 0 0 0 0 0 1 1 1 1 1 2
14 13 11 11 10 10 11 12 12 14 15 14 11 10 8 7 7 7 7 6 6 6 4 3 2 2 4 5 3 2 2 2 1 0 0 0 0 0 0 0 0 1 1
15 14 14 13 12 12 12 13 12 13 14 14 12 11 11 10 10 9 8 6 6 7 6 4 2 3 6 7 6 5 3 3 2 0 0 0 0 0 0 0 0 0 0
14 14 14 15 14 12 11 12 12 12 12 11 9 9 10 12 12 10 8 7 7 7 7 6 4 5 7 8 7 5 4 4 2 0 0 0 0 0 0 0 0 0 0
16 14 13 13 13 11 10 11 12 12 10 8 7 7 10 12 12 10 9 7 7 7 7 7 7 7 8 8 7 5 5 7 4 0 0 0 0 0 0 0 0 0 0
20 18 15 14 14 12 11 12 13 12 10 7 6 7 9 10 10 10 10 8 7 7 7 7 7 9 10 11 10 7 7 8 6 2 2 2 2 1 1 0 0 0 0
23 22 21 20 18 15 12 12 13 13 12 10 8 8 9 9 9 8 7 7 8 8 7 6 7 10 13 14 13 11 10 10 7 5 5 5 4 4 4 2 1 0 0
24 24 25 24 21 16 11 8 9 11 13 13 13 12 10 8 8 6 4 4 5 7 7 6 8 12 16 16 16 14 14 12 9 7 7 7 6 5 6 4 1 0 0
23 25 26 25 23 16 8 4 4 6 10 14 17 16 14 11 10 9 7 5 5 4 5 7 10 14 17 17 17 17 16 14 11 8 6 6 6 6 5 3 1 0 0
26 26 27 27 26 19 8 3 2 5 10 15 19 20 19 16 14 14 14 12 11 8 4 5 9 12 14 15 16 16 17 16 12 9 7 6 5 6 5 2 0 0 0
28 27 26 28 29 23 13 4 4 10 15 17 20 21 20 19 15 14 18 20 19 15 9 7 8 8 9 10 12 15 17 17 13 10 9 8 7 6 6 4 2 1 0
28 26 25 27 29 26 16 5 6 14 19 19 21 20 18 17 14 12 18 22 22 19 16 13 9 6 5 6 7 13 18 18 15 12 12 11 8 6 6 5 3 2 1
Wind_Speed
2 3 2 2 2 2 3 2 3 3 2 2 2 2 2 2 2 2 4 7 6 5 5 4 5 6 6 7 7 7 7 6 6 6 6 7 7 6 7 7 7 6 6
2 2 2 2 2 2 2 2 3 2 2 2 2 2 1 1 2 1 2 5 7 5 4 4 5 5 6 7 7 8 7 7 6 6 6 6 6 6 6 6 6 6 6
2 2 2 2 2 2 2 2 2 2 2 2 3 2 2 2 1 1 1 1 4 7 5 4 4 5 6 6 7 7 7 6 6 6 6 6 5 5 6 6 6 6 6
2 2 2 2 2 1 2 2 2 2 2 2 2 1 2 2 2 1 1 1 1 2 5 5 4 4 6 6 6 6 5 6 6 6 6 6 6 5 5 6 6 6 6
2 2 1 1 1 2 2 1 3 1 2 2 2 2 2 2 2 2 1 1 2 2 2 6 6 5 5 5 5 5 5 5 6 6 6 6 6 6 5 5 5 6 6
2 1 2 2 1 2 2 2 2 2 1 1 1 2 1 1 1 2 1 2 2 2 2 3 5 6 5 4 5 5 5 6 6 7 6 6 6 6 6 6 6 6 6
2 1 1 2 1 2 1 2 2 3 2 2 2 2 2 2 2 1 1 1 2 2 2 3 2 2 5 7 5 5 5 5 6 6 6 6 6 6 7 7 6 6 6
2 2 2 1 2 1 2 2 1 1 2 2 1 2 2 3 2 2 1 1 1 1 2 3 3 2 2 3 5 5 3 3 4 5 5 5 5 6 6 6 6 6 5
3 2 2 1 1 1 2 1 1 2 1 2 1 1 1 1 2 3 2 1 1 1 1 2 3 3 3 2 4 6 4 3 3 4 5 4 4 4 5 6 6 5 5
2 2 2 1 1 1 2 2 2 1 2 2 1 1 2 1 1 2 2 2 2 1 1 1 2 3 3 3 3 4 4 3 3 3 5 5 4 4 5 5 5 5 5
2 2 2 2 2 2 1 1 1 2 2 2 1 1 1 1 2 1 1 2 2 2 1 2 2 2 3 3 3 5 5 3 3 3 4 4 4 4 4 4 3 3 3
2 3 2 2 2 1 2 2 2 3 1 1 1 1 1 1 1 0 1 2 2 2 1 1 2 2 2 2 3 5 4 3 3 4 3 3 3 3 3 3 3 2 2
2 2 2 2 2 2 2 2 2 1 2 1 2 1 1 0 0 0 1 1 1 2 2 2 1 2 2 2 4 5 5 4 4 4 3 3 3 3 3 3 2 2 2
1 1 2 2 2 2 2 2 2 2 2 2 1 1 1 0 0 0 1 1 2 2 3 2 2 1 1 2 3 5 4 6 5 4 4 4 3 3 3 3 2 2 2
2 2 2 2 2 2 1 2 1 1 2 2 2 2 2 1 1 1 1 2 2 2 2 2 2 2 2 2 3 3 3 5 6 5 5 4 4 4 3 3 2 2 2
2 2 2 2 2 2 2 2 2 2 2 1 1 0 1 1 1 1 1 1 2 3 1 1 1 2 0 1 3 2 3 7 7 7 6 5 4 4 4 3 3 3 2
2 2 2 2 2 2 2 2 2 3 2 2 2 2 2 1 1 1 1 1 1 2 1 1 1 2 2 2 1 3 4 4 5 8 7 6 6 5 5 4 4 3 3
3 3 2 2 2 2 2 3 3 3 3 2 2 2 2 2 2 2 1 1 1 1 2 1 1 2 3 2 2 3 3 3 3 8 8 7 6 6 6 5 5 4 4
3 3 2 2 3 3 3 3 3 3 3 2 2 2 2 2 2 2 2 2 2 2 2 2 2 1 2 2 2 3 3 2 3 6 9 9 8 7 6 6 6 5 5
3 3 3 3 3 3 3 3 3 3 3 2 2 2 2 2 2 2 3 2 2 2 2 3 2 2 2 2 3 3 2 3 2 2 2 4 7 9 9 8 7 6 5
3 3 3 3 3 4 3 3 4 4 3 3 3 3 2 1 1 2 2 1 2 3 3 3 3 2 2 2 3 3 2 2 2 2 3 3 4 5 7 9 8 6 5
3 3 3 3 4 2 3 0 3 3 3 4 3 3 3 4 3 2 2 2 2 4 4 3 3 3 2 3 2 3 3 3 2 1 3 3 2 3 3 2 5 6 6
4 4 3 3 3 2 3 2 3 3 3 3 3 3 3 2 4 4 4 5 4 3 4 5 4 4 3 3 4 4 3 4 4 2 2 4 3 3 2 2 7 6 5
4 4 3 3 3 3 4 4 4 6 4 4 4 4 4 3 3 3 4 4 4 5 5 6 4 4 3 3 4 5 4 5 5 4 3 4 3 3 2 2 8 7 6
4 4 4 4 4 3 5 5 5 5 5 5 5 4 5 5 2 3 5 5 4 4 4 4 3 3 2 3 4 5 4 5 4 3 3 4 3 2 3 3 5 9 8
4 4 4 4 5 4 5 6 6 5 5 5 5 5 5 5 3 4 6 6 6 5 5 5 6 6 7 7 7 7 6 6 4 3 2 3 3 2 3 2 2 4 5
Wind_Direction
113 109 101 101 108 112 130 128 122 116 117 134 132 111 89 96 96 121 122 137 152 163 176 186 181 175 177 178 181 183 185 188 188 191 193 196 196 197 198 202 202 201 201
118 122 128 120 113 117 110 125 121 127 126 114 121 120 119 97 92 116 136 142 152 161 174 193 191 181 177 183 187 186 191 196 195 192 196 198 198 201 204 205 204 201 198
128 139 128 139 111 113 126 137 130 136 146 138 123 118 119 102 100 107 118 143 152 158 166 179 182 179 175 183 189 190 193 194 195 193 193 193 195 201 205 206 201 194 193
142 150 130 119 119 133 126 124 150 127 116 125 125 138 133 132 138 144 137 153 154 153 154 160 165 165 170 179 182 183 181 179 181 187 189 188 188 189 190 194 196 194 195
143 140 122 102 142 110 113 130 105 114 122 119 144 146 146 144 148 140 122 131 137 162 146 142 155 157 166 174 175 174 173 173 176 187 193 191 191 189 187 189 196 200 202
141 142 135 112 112 119 123 117 123 131 142 143 128 108 116 111 132 120 149 133 139 149 146 143 158 157 161 167 176 176 175 178 186 192 196 197 199 200 198 198 204 205 210
125 131 93 112 120 111 114 137 148 152 146 141 145 134 132 124 111 127 139 131 127 131 138 144 160 158 154 159 163 168 174 185 191 196 198 202 206 207 207 205 205 207 212
142 150 146 161 127 147 160 153 159 167 155 162 191 184 160 148 146 117 143 155 137 148 151 148 148 157 178 154 135 153 163 172 176 183 187 191 201 205 201 200 201 201 207
159 158 158 173 170 199 149 164 179 180 173 172 238 286 267 116 138 132 132 131 134 152 170 144 149 146 167 154 149 152 167 177 175 188 186 184 183 185 190 198 202 201 205
160 168 170 180 219 205 164 204 161 202 215 191 166 282 329 22 262 140 142 135 146 165 155 169 150 154 168 155 131 117 143 158 170 179 186 181 173 178 187 193 201 210 219
168 179 181 193 215 219 195 220 182 232 234 257 220 198 176 189 240 218 139 150 153 147 153 171 169 165 165 167 165 131 141 162 168 168 166 171 172 170 174 180 192 198 201
161 165 190 201 219 228 211 214 211 207 233 282 290 255 231 229 227 147 173 194 148 127 139 162 191 176 172 168 138 120 140 159 162 164 163 164 165 170 175 180 187 193 206
164 164 193 204 218 221 224 213 213 216 213 218 249 260 283 327 349 296 223 201 175 151 165 184 184 181 174 166 140 145 155 167 171 170 169 173 178 177 179 185 199 207 214
164 144 181 190 199 209 212 191 205 191 190 220 240 292 273 325 282 246 260 230 223 185 172 153 158 172 162 179 124 195 167 170 179 180 181 184 178 171 176 182 192 204 218
178 176 196 187 182 190 199 204 173 181 179 208 203 197 230 174 228 264 264 271 281 248 162 158 169 143 185 164 149 198 183 159 181 185 186 185 181 179 180 180 191 200 214
190 192 200 188 178 183 186 194 175 155 180 185 232 277 249 196 220 243 242 256 282 287 283 128 160 128 123 198 160 207 189 162 183 184 187 187 188 193 199 201 206 212 213
182 193 189 182 190 195 191 194 192 171 181 178 208 196 211 253 244 229 232 243 254 272 255 182 151 133 183 260 177 219 211 210 178 178 188 194 200 204 208 209 212 216 218
180 175 182 185 203 199 196 195 201 186 185 186 203 201 203 197 205 245 241 240 243 260 251 249 212 181 195 222 230 246 235 218 209 160 179 193 200 205 208 210 210 213 220
176 177 182 187 202 209 207 201 201 201 193 192 198 205 204 202 215 216 242 234 230 221 230 237 227 192 202 199 225 231 229 237 241 166 177 189 196 203 205 206 206 209 216
179 183 189 191 197 205 210 210 203 197 199 199 203 210 207 207 215 229 227 228 236 237 219 240 232 209 199 195 236 242 227 208 240 231 188 190 186 198 203 202 198 200 205
190 189 199 202 201 204 209 212 210 193 195 205 209 213 206 150 25 306 284 244 228 239 233 233 235 223 216 219 242 253 259 260 220 236 240 216 197 209 195 195 194 195 199
203 200 209 210 214 215 106 139 250 203 201 207 212 214 203 189 183 198 289 309 292 258 262 261 252 254 251 250 264 267 267 269 266 204 251 256 248 246 235 199 155 180 196
204 202 207 212 219 169 142 180 240 233 221 218 215 224 235 194 205 214 208 214 232 254 267 269 270 271 264 263 267 260 261 272 283 291 259 261 253 250 243 138 143 169 188
208 211 213 217 219 192 175 196 226 227 230 226 227 227 234 237 234 246 240 227 228 223 227 237 253 262 272 275 261 262 262 252 249 229 236 260 252 251 241 176 157 175 188
214 215 214 218 221 203 189 196 224 224 220 225 230 233 240 236 214 242 244 242 245 241 213 211 240 260 290 280 273 260 250 252 255 238 210 262 264 264 245 212 164 172 185
221 223 215 222 225 221 190 194 221 238 230 230 220 220 221 241 219 219 240 243 242 245 246 215 213 224 231 226 225 245 258 259 263 258 181 246 263 256 253 226 201 179 193